THORAD AGENA D DEB, 5359

Orbit data source: Space-Track

THORAD AGENA D DEB, 5359 is space debris in SSO originally from a launch on Wed, 08 Apr 1970 UTC launched from the Air Force Western Test Range (AFWTR). Debris objects in space refer to the collection of defunct objects orbiting the Earth. Examples of debris include non-operational satellites, rocket bodies, and fragments generated from explosions, collisions, or faulty payload assembly.

Loading next visibility...
Identifier
5359, 1970-025KQ
Orbit
SSO
Country
Flag of USUS
Related business
Manufacturer
Unknown
Mission
Spacecraft
Bus & Motor
Unknown
Mass
Unknown
Launch date (UTC)
1970-04-08 (56 years ago)
Launch vehicle
Unknown
Launch site
Air Force Western Test Range (AFWTR)
Object type
Payload
Rocket body
Debris
Shape & HBR
Unknown shape, 0.1 m
Radar Cross Section
Small (<0.1 m²)

Expand to show TLE details & history
Last TLE update: 12 hours ago

TLE from 12 hours ago
0 THORAD AGENA D DEB
1 05359U 70025KQ  25287.64268440  .00000896  00000-0  10153-2 0  9999
2 05359  99.9947 234.3116 0004861 328.9391 209.6222 13.73475023759622
Epoch: 2025-10-14T15:25Z
TLE epoch observation values (Epoch: 2025-10-14T15:25:27.932Z)
Latitude
1.33913°
Longitude
159.75186°
Altitude
992.878 km
Speed
7.354 km/s
True Right ascension
03h 38m 11s
True Declination
1° 19' 53"
Sunlit
Object was in full shadow at epoch
Visualization orbit readout
Latitude
Unknown
Longitude
Unknown
Altitude
Unknown
Speed
Unknown
Apparent Right ascension
Unknown
Apparent Declination
Unknown
Sunlit
N/A
Visualization observer readout
Local Sidereal Time
22:01:21
Azimuth
Unknown
Elevation
Unknown
Doppler factor
Unknown
Orbital elements
Apogee altitude
987.986 km
Perigee altitude
980.828 km
Semi-major axis
7,362.544 km
Eccentricity
0.00049
Inclination
99.9947°
RAAN
234.3116°
Arg. of periapsis
328.9391°
True anomaly
209.59468°
Mean anomaly
209.6222°
Eccentric anomaly
209.60844°
Mean motion
3.43559 °/min
Orbital period
104.79 mins
BSTAR
0.0010153

Documentation

Showing up to 5 results
|